Regional Weather Roundup
Issued by NWS Kansas City/Pleasant Hill, MO

Home | Current Version | Previous Version | Graphics & Text | Print | Product List | Glossary Off
Versions: 1 2 3 4 5 6 7 8 9 10 11 12 13 14 15 16 17 18 19 20 21 22 23 24 25 26 27 28 29 30 31 32 33 34 35 36 37 38 39 40 41 42 43 44 45 46 47 48 49 50

000
ASUS43 KEAX 221610
RWREAX

WEATHER ROUNDUP FOR EASTERN KANSAS AND NORTHWEST MISSOURI
NATIONAL WEATHER SERVICE KANSAS CITY/PLEASANT HILL MO
1100 AM CDT SUN OCT 22 2017

KSZ040-057-103>105-MOZ028-029-037-043-221700-
...KANSAS CITY METROPOLITAN AREA...

CITY           SKY/WX    TMP DP  RH WIND       PRES   REMARKS
K.C. INTL      PTSUNNY   55  47  74 W8        30.13R
K.C. DOWNTOWN  CLOUDY    56  48  74 NW9       30.12R
LEES SUMMIT    CLOUDY    56  47  71 NW10      30.13R
OLATHE - IXD   PTSUNNY   54  46  74 NW13      30.14R
OLATHE - OJC   CLOUDY    54  45  71 NW9       30.13R
LAWRENCE       MOSUNNY   56  49  77 W12       30.15R

$$

MOZ001>008-011>017-020>025-030>033-038>040-044>046-053-054-221700-
...NORTHERN AND CENTRAL MISSOURI...

CITY           SKY/WX    TMP DP  RH WIND       PRES   REMARKS
ST. JOSEPH     SUNNY     57  46  66 NW6       30.13R
MOSBY          PTSUNNY   55  45  67 NW9       30.12R
WARRENSBURG    CLOUDY    50  50 100 W5        30.11R
WHITEMAN AFB   PTSUNNY   52  48  88 N3        30.07R
CLINTON        CLOUDY    50  48  93 N7        30.12R
SEDALIA        LGT RAIN  52  52 100 N9        30.11R
WARSAW         NOT AVBL
CHILLICOTHE      N/A     54  50  86 VRB3      30.09S
KIRKSVILLE     CLOUDY    51  50  96 N6        30.07R

$$

MOZ041-047>049-056>058-063>065-088>090-097-221700-
...EASTERN AND SOUTHERN MISSOURI...

CITY           SKY/WX    TMP DP  RH WIND       PRES   REMARKS
ST. LOUIS INTL CLOUDY    62  60  93 NW12      29.96R
SPIRIT OF STL  CLOUDY    61  59  93 W10       29.97R
COLUMBIA       LGT RAIN  53  51  93 NW15      30.07R FOG
JEFFERSON CITY LGT RAIN  54  50  86 NW12G20   30.06R
ROLLA          LGT RAIN  53  53 100 NW14      30.05R FOG
OSAGE BEACH    LGT RAIN  52  51  97 VRB7      30.09R
SPRINGFIELD    LGT RAIN  52  52 100 N14       30.10R FOG
BRANSON        LGT RAIN  52  52 100 NW14      30.09R FOG
JOPLIN         CLOUDY    53  50  89 NW9       30.15R
WEST PLAINS    CLOUDY    61  58  90 W5        30.04S

$$

IAZ060-094-KSZ022-034>040-054-083-096-NEZ052-066-093-221700-
...KANSAS...SOUTHEAST NEBRASKA AND IOWA...

CITY           SKY/WX    TMP DP  RH WIND       PRES   REMARKS
TOPEKA         MOSUNNY   55  47  74 W7        30.16R
MANHATTAN      SUNNY     60  43  53 W8        30.18R
EMPORIA        SUNNY     57  45  64 NW9       30.18R
CHANUTE        MOSUNNY   58  46  64 NW14      30.16R
WICHITA        MOSUNNY   60  45  57 NW7       30.20R
OMAHA          MOSUNNY   54  40  59 SE3       30.12S
LINCOLN        SUNNY     57  39  51 SW5       30.15F
FALLS CITY     SUNNY     56  42  59 NW9       30.13S
LAMONI         MOSUNNY   55  44  66 NW10      30.09R
DES MOINES     CLOUDY    54  43  66 NW7       30.08R

$$




USA.gov is the U.S. government's official web portal to all federal, state and local government web resources and services.